Location: Mexico
(19.4000°N, 99.1500°W)
Time: 08:18:36
(UTC-06:00)

ISS - Pass Details

Date: 18 September 2019
Orbit: 411 x 421 km, 51.6° (Epoch: 18 September)

Event Time Altitude Azimuth Distance (km) Brightness Sun altitude
Rises 19:26:30 0° 240° (WSW) 2,331 1.0 -12.6°
Reaches altitude 10° 19:28:49 10° 254° (WSW) 1,470 0.2 -13.1°
Maximum altitude 19:31:35 25° 312° (NW) 872 -1.5 -13.8°
Drops below altitude 10° 19:34:23 10° 10° (N) 1,471 -1.0 -14.4°
Sets 19:36:42 0° 24° (NNE) 2,332 -0.1 -15.0°
Enters shadow 19:36:46 - 24° (NNE) 2,355 -0.1 -15.0°
